AEE791 LGTS-LGAV

Flight info

Callsign AEE791
Flight time 0h 35m
Altitude 27000
Route LEKPO UL617 SKP UM749 ROPOX
Aircraft A20N/M-SDE3FGHIRWY/LB1

Departure

Time 2026-05-05 06:48
Airport Thessaloniki Macedonia International Airport (LGTS)

Arrival

Time 2026-05-05 07:23
Airport Athens Eleftherios Venizelos International Airport (LGAV)
Time Latitude Longitude Altitude Speed Heading
2026-05-05 06:37 40.52149 22.98171 25 ft 0 kts 14°
2026-05-05 06:39 40.52145 22.98169 25 ft 1 kts 14°
2026-05-05 06:40 40.52137 22.98167 25 ft 1 kts 14°
2026-05-05 06:40 40.52124 22.98162 29 ft 2 kts 26°
2026-05-05 06:40 40.52111 22.98150 27 ft 2 kts 49°
2026-05-05 06:40 40.52102 22.98133 28 ft 2 kts 72°
2026-05-05 06:41 40.52099 22.98111 27 ft 0 kts 95°
2026-05-05 06:42 40.52099 22.98112 26 ft 0 kts 95°
2026-05-05 06:42 40.52098 22.98117 26 ft 1 kts 95°
2026-05-05 06:43 40.52098 22.98137 28 ft 4 kts 94°
2026-05-05 06:43 40.52090 22.98186 26 ft 7 kts 104°
2026-05-05 06:43 40.52074 22.98267 29 ft 11 kts 105°
2026-05-05 06:43 40.52022 22.98331 28 ft 12 kts 180°
2026-05-05 06:44 40.51932 22.98323 27 ft 14 kts 166°
2026-05-05 06:44 40.51887 22.98409 27 ft 0 kts 109°
2026-05-05 06:44 40.51884 22.98424 25 ft 4 kts 107°
2026-05-05 06:44 40.51874 22.98474 28 ft 7 kts 101°
2026-05-05 06:45 40.51861 22.98564 29 ft 14 kts 101°
2026-05-05 06:45 40.51822 22.98677 27 ft 5 kts 169°
2026-05-05 06:45 40.51769 22.98689 27 ft 13 kts 172°
2026-05-05 06:45 40.51733 22.98688 26 ft 5 kts 191°
2026-05-05 06:46 40.51683 22.98649 25 ft 6 kts 244°
2026-05-05 06:46 40.51691 22.98604 28 ft 1 kts 277°
2026-05-05 06:46 40.51692 22.98597 28 ft 2 kts 280°
2026-05-05 06:46 40.51692 22.98592 28 ft 0 kts 280°
2026-05-05 06:47 40.51703 22.98536 27 ft 12 kts 290°
2026-05-05 06:47 40.51773 22.98191 26 ft 75 kts 282°
2026-05-05 06:47 40.51942 22.97270 23 ft 132 kts 284°
2026-05-05 06:48 40.52175 22.96066 672 ft 125 kts 285°
2026-05-05 06:48 40.52422 22.94827 1183 ft 150 kts 287°
2026-05-05 06:48 40.52711 22.93487 1984 ft 155 kts 288°
2026-05-05 06:48 40.53013 22.92070 2436 ft 170 kts 288°
2026-05-05 06:49 40.53129 22.90419 2819 ft 194 kts 260°
2026-05-05 06:49 40.52442 22.88845 3217 ft 223 kts 225°
2026-05-05 06:49 40.51000 22.87865 3679 ft 249 kts 191°
2026-05-05 06:49 40.49250 22.88015 4420 ft 261 kts 160°
2026-05-05 06:50 40.47667 22.89301 5077 ft 277 kts 134°
2026-05-05 06:50 40.46333 22.91142 6101 ft 279 kts 133°
2026-05-05 06:50 40.45592 22.92100 6667 ft 280 kts 136°
2026-05-05 06:50 40.44215 22.93587 7620 ft 283 kts 142°
2026-05-05 06:51 40.42561 22.95025 8592 ft 288 kts 147°
2026-05-05 06:51 40.37168 22.98796 10786 ft 323 kts 151°
2026-05-05 06:52 40.35131 23.00159 11149 ft 345 kts 151°
2026-05-05 06:52 40.32968 23.01608 11880 ft 352 kts 150°
2026-05-05 06:52 40.30777 23.03078 12709 ft 356 kts 150°
2026-05-05 06:52 40.28553 23.04574 13522 ft 361 kts 150°
2026-05-05 06:53 40.26338 23.06066 14247 ft 367 kts 150°
2026-05-05 06:53 40.24018 23.07631 14935 ft 372 kts 151°
2026-05-05 06:53 40.21693 23.09199 15604 ft 378 kts 151°
2026-05-05 06:53 40.19338 23.10786 16278 ft 384 kts 152°
2026-05-05 06:54 40.16946 23.12397 16930 ft 390 kts 152°
2026-05-05 06:54 40.14522 23.14027 17607 ft 395 kts 153°
2026-05-05 06:54 40.12063 23.15678 18264 ft 400 kts 154°
2026-05-05 06:54 40.09484 23.17110 18852 ft 404 kts 160°
2026-05-05 06:55 40.06839 23.18402 19471 ft 408 kts 160°
2026-05-05 06:55 40.04204 23.19696 20067 ft 412 kts 160°
2026-05-05 06:55 40.01474 23.21039 20674 ft 416 kts 160°
2026-05-05 06:55 39.98756 23.22377 21262 ft 420 kts 160°
2026-05-05 06:56 39.96012 23.23726 21850 ft 423 kts 160°
2026-05-05 06:56 39.93241 23.25089 22427 ft 428 kts 160°
2026-05-05 06:56 39.90445 23.26461 23012 ft 431 kts 160°
2026-05-05 06:56 39.87624 23.27846 23601 ft 435 kts 160°
2026-05-05 06:57 39.84786 23.29238 24078 ft 439 kts 160°
2026-05-05 06:57 39.81952 23.30626 24519 ft 443 kts 160°
2026-05-05 06:57 39.79022 23.32060 24972 ft 447 kts 160°
2026-05-05 06:57 39.76137 23.33471 25398 ft 451 kts 160°
2026-05-05 06:58 39.73188 23.34911 25820 ft 455 kts 160°
2026-05-05 06:58 39.70217 23.36360 26235 ft 459 kts 160°
2026-05-05 06:58 39.67212 23.37823 26641 ft 462 kts 160°
2026-05-05 06:58 39.64187 23.39295 26900 ft 467 kts 160°
2026-05-05 06:59 39.61147 23.40772 26998 ft 467 kts 160°
2026-05-05 06:59 39.58101 23.42252 27077 ft 467 kts 160°
2026-05-05 06:59 39.55056 23.43729 27086 ft 467 kts 160°
2026-05-05 06:59 39.52009 23.45207 27085 ft 467 kts 160°
2026-05-05 07:00 39.48965 23.46681 27085 ft 467 kts 160°
2026-05-05 07:00 39.45922 23.48153 27082 ft 467 kts 160°
2026-05-05 07:00 39.42875 23.49626 27083 ft 467 kts 160°
2026-05-05 07:00 39.39915 23.51057 27081 ft 467 kts 160°
2026-05-05 07:01 39.36872 23.52530 27078 ft 467 kts 160°
2026-05-05 07:01 39.33827 23.54005 27077 ft 467 kts 160°
2026-05-05 07:01 39.30789 23.55475 27078 ft 467 kts 160°
2026-05-05 07:01 39.27821 23.56909 27078 ft 467 kts 160°
2026-05-05 07:02 39.24779 23.58372 27075 ft 466 kts 160°
2026-05-05 07:02 39.21739 23.59832 27076 ft 466 kts 161°
2026-05-05 07:02 39.18671 23.61164 27075 ft 465 kts 166°
2026-05-05 07:02 39.15507 23.62000 27074 ft 463 kts 174°
2026-05-05 07:03 39.12304 23.62469 27076 ft 463 kts 176°
2026-05-05 07:03 39.09102 23.62930 27076 ft 463 kts 176°
2026-05-05 07:03 39.05906 23.63397 27024 ft 462 kts 175°
2026-05-05 07:03 39.02717 23.63867 26655 ft 461 kts 175°
2026-05-05 07:04 38.99527 23.64338 26007 ft 462 kts 175°
2026-05-05 07:04 38.96372 23.64804 25223 ft 464 kts 175°
2026-05-05 07:04 38.93165 23.65276 24520 ft 463 kts 175°
2026-05-05 07:04 38.89987 23.65745 23967 ft 456 kts 175°
2026-05-05 07:05 38.86854 23.66207 23386 ft 450 kts 175°
2026-05-05 07:05 38.83758 23.66663 22688 ft 446 kts 175°
2026-05-05 07:05 38.80689 23.67114 21981 ft 442 kts 175°
2026-05-05 07:05 38.77647 23.67560 21369 ft 437 kts 175°
2026-05-05 07:06 38.74655 23.67999 20787 ft 431 kts 175°
2026-05-05 07:06 38.71691 23.68434 20207 ft 427 kts 175°
2026-05-05 07:06 38.68752 23.68864 19633 ft 423 kts 175°
2026-05-05 07:06 38.65843 23.69289 19043 ft 419 kts 175°
2026-05-05 07:07 38.62951 23.69711 18421 ft 417 kts 175°
2026-05-05 07:07 38.60087 23.70129 17850 ft 412 kts 175°
2026-05-05 07:07 38.57291 23.70536 17276 ft 407 kts 175°
2026-05-05 07:07 38.54494 23.70943 16708 ft 402 kts 174°
2026-05-05 07:08 38.51725 23.71344 16140 ft 399 kts 174°
2026-05-05 07:08 38.48977 23.71743 15577 ft 396 kts 174°
2026-05-05 07:08 38.46250 23.72140 15018 ft 393 kts 174°
2026-05-05 07:08 38.43545 23.72533 14459 ft 390 kts 174°
2026-05-05 07:09 38.40850 23.72924 13884 ft 389 kts 174°
2026-05-05 07:09 38.38182 23.73311 13338 ft 385 kts 173°
2026-05-05 07:09 38.35537 23.73695 12779 ft 380 kts 173°
2026-05-05 07:09 38.32920 23.74074 12255 ft 376 kts 173°
2026-05-05 07:10 38.30333 23.74449 11711 ft 374 kts 173°
2026-05-05 07:10 38.27761 23.74822 11189 ft 371 kts 173°
2026-05-05 07:10 38.25206 23.75191 10663 ft 368 kts 173°
2026-05-05 07:10 38.22674 23.75557 10136 ft 366 kts 173°
2026-05-05 07:11 38.20146 23.75922 9566 ft 364 kts 173°
2026-05-05 07:11 38.17946 23.75993 9054 ft 362 kts 187°
2026-05-05 07:11 38.15543 23.75100 8496 ft 360 kts 207°
2026-05-05 07:11 38.13462 23.73455 7941 ft 356 kts 214°
2026-05-05 07:12 38.11495 23.71787 7413 ft 353 kts 214°
2026-05-05 07:12 38.09459 23.70057 6880 ft 350 kts 214°
2026-05-05 07:12 38.07437 23.68348 6330 ft 348 kts 214°
2026-05-05 07:12 38.05420 23.66651 5767 ft 347 kts 214°
2026-05-05 07:13 38.03417 23.64970 5213 ft 344 kts 214°
2026-05-05 07:13 38.01429 23.63307 4676 ft 341 kts 214°
2026-05-05 07:13 37.99463 23.61666 4240 ft 335 kts 214°
2026-05-05 07:13 37.97530 23.60053 3879 ft 328 kts 213°
2026-05-05 07:14 37.95474 23.58928 3639 ft 320 kts 192°
2026-05-05 07:14 37.93294 23.58903 3381 ft 311 kts 168°
2026-05-05 07:14 37.91348 23.59943 3135 ft 300 kts 148°
2026-05-05 07:14 37.89645 23.61374 3025 ft 287 kts 143°
2026-05-05 07:15 37.88619 23.62376 2999 ft 276 kts 141°
2026-05-05 07:15 37.87155 23.63840 3000 ft 261 kts 141°
2026-05-05 07:15 37.85773 23.65219 2997 ft 246 kts 141°
2026-05-05 07:15 37.84472 23.66512 2995 ft 229 kts 141°
2026-05-05 07:16 37.83262 23.67715 2999 ft 214 kts 141°
2026-05-05 07:16 37.82142 23.68824 2997 ft 196 kts 141°
2026-05-05 07:16 37.81115 23.69835 2997 ft 183 kts 141°
2026-05-05 07:16 37.80098 23.70835 2998 ft 185 kts 141°
2026-05-05 07:17 37.79083 23.71832 2998 ft 184 kts 141°
2026-05-05 07:17 37.78068 23.72824 3001 ft 184 kts 140°
2026-05-05 07:17 37.77199 23.73994 2997 ft 183 kts 123°
2026-05-05 07:17 37.76781 23.75464 3000 ft 176 kts 88°
2026-05-05 07:18 37.77064 23.76910 3007 ft 170 kts 59°
2026-05-05 07:18 37.77748 23.78039 2988 ft 153 kts 42°
2026-05-05 07:18 37.78570 23.78957 2995 ft 158 kts 36°
2026-05-05 07:18 37.79429 23.79793 2999 ft 156 kts 34°
2026-05-05 07:19 37.80299 23.80620 2997 ft 155 kts 34°
2026-05-05 07:19 37.81161 23.81439 2990 ft 154 kts 34°
2026-05-05 07:19 37.81991 23.82229 2812 ft 143 kts 34°
2026-05-05 07:19 37.82784 23.82981 2630 ft 141 kts 34°
2026-05-05 07:20 37.83554 23.83715 2436 ft 135 kts 34°
2026-05-05 07:20 37.84292 23.84414 2270 ft 139 kts 34°
2026-05-05 07:20 37.85053 23.85136 2081 ft 135 kts 34°
2026-05-05 07:20 37.85811 23.85858 1894 ft 137 kts 34°
2026-05-05 07:21 37.86561 23.86573 1723 ft 136 kts 34°
2026-05-05 07:21 37.87334 23.87307 1532 ft 137 kts 34°
2026-05-05 07:21 37.88077 23.88014 1356 ft 136 kts 34°
2026-05-05 07:21 37.88842 23.88735 1150 ft 136 kts 34°
2026-05-05 07:22 37.89604 23.89483 910 ft 136 kts 35°
2026-05-05 07:22 37.90353 23.90179 695 ft 136 kts 36°
2026-05-05 07:22 37.91100 23.90901 549 ft 136 kts 37°
2026-05-05 07:22 37.91854 23.91618 375 ft 135 kts 37°
2026-05-05 07:23 37.92600 23.92320 305 ft 130 kts 37°
2026-05-05 07:23 37.93117 23.92810 292 ft 59 kts 36°
2026-05-05 07:23 37.93374 23.93055 292 ft 42 kts 38°
2026-05-05 07:23 37.93562 23.93283 292 ft 17 kts 59°
2026-05-05 07:24 37.93598 23.93368 294 ft 11 kts 62°
2026-05-05 07:24 37.93631 23.93454 300 ft 10 kts 73°
2026-05-05 07:24 37.93608 23.93497 297 ft 5 kts 133°
2026-05-05 07:24 37.93578 23.93510 299 ft 5 kts 188°
2026-05-05 07:25 37.93537 23.93484 298 ft 8 kts 211°
2026-05-05 07:25 37.93483 23.93432 300 ft 11 kts 211°
2026-05-05 07:25 37.93414 23.93466 301 ft 12 kts 130°
2026-05-05 07:25 37.93363 23.93560 300 ft 14 kts 124°
2026-05-05 07:26 37.93300 23.93666 301 ft 16 kts 127°
2026-05-05 07:26 37.93225 23.93787 301 ft 19 kts 130°
2026-05-05 07:26 37.93145 23.93916 302 ft 14 kts 124°
2026-05-05 07:26 37.93094 23.94030 303 ft 13 kts 88°
2026-05-05 07:27 37.93151 23.94109 301 ft 14 kts 39°
2026-05-05 07:27 37.93234 23.94193 302 ft 17 kts 39°
2026-05-05 07:27 37.93267 23.94316 302 ft 17 kts 115°
2026-05-05 07:27 37.93195 23.94442 304 ft 19 kts 128°
2026-05-05 07:28 37.93167 23.94546 301 ft 6 kts 45°
2026-05-05 07:28 37.93212 23.94590 301 ft 10 kts 36°
2026-05-05 07:28 37.93277 23.94651 301 ft 13 kts 36°
2026-05-05 07:28 37.93360 23.94729 303 ft 16 kts 36°
2026-05-05 07:29 37.93444 23.94806 302 ft 11 kts 36°
2026-05-05 07:29 37.93514 23.94852 300 ft 10 kts 341°
2026-05-05 07:29 37.93537 23.94832 300 ft 1 kts 312°
2026-05-05 07:29 37.93552 23.94809 300 ft 5 kts 310°
2026-05-05 07:30 37.93563 23.94793 300 ft 0 kts 309°